Location: Camp at the Woods
(43.2055°N, 93.0905°W)
Time: 22:54:18
(UTC+00:00)

USA 267 - Visible Passes

Search period start: 27 May 2024 00:00
Search period end: 06 June 2024 00:00
Orbit: 1100 x 1107 km, 123.0° (Epoch: 21 May)

Date Brightness Start Highest point End Pass type
(mag) Time Alt. Az. Time Alt. Az. Time Alt. Az.
27 May 4.8 04:37:33 10° ENE 04:40:07 17° E 04:40:07 17° E visible
27 May 3.1 06:19:08 10° NE 06:25:41 75° SE 06:27:27 51° SSW visible
27 May 4.2 08:02:22 10° NE 08:08:25 42° NNW 08:14:29 10° W visible
27 May 5.1 09:45:09 10° NE 09:50:24 27° N 09:55:39 10° WNW visible
28 May 3.7 05:36:39 10° ENE 05:42:38 40° SE 05:42:38 40° SE visible
28 May 3.5 07:19:27 10° NE 07:25:55 65° NW 07:29:57 25° WSW visible
28 May 4.8 09:02:39 10° NE 09:08:14 31° NNW 09:13:48 10° WNW visible
29 May 4.8 04:55:02 10° ENE 04:57:50 18° ESE 04:57:50 18° ESE visible
29 May 3.1 06:36:38 10° NE 06:43:11 75° SE 06:45:09 48° SSW visible
29 May 4.2 08:19:52 10° NE 08:25:56 42° NNW 08:31:58 10° W visible
29 May 5.0 10:02:39 10° NE 10:07:54 27° N 10:13:09 10° WNW visible
30 May 3.7 05:54:08 10° ENE 06:00:13 40° SE 06:00:22 40° SE visible
30 May 3.5 07:36:58 10° NE 07:43:25 65° NW 07:47:41 23° WSW visible
30 May 4.7 09:20:09 10° NE 09:25:43 31° NNW 09:31:18 10° WNW visible
31 May 4.8 05:12:31 10° ENE 05:15:36 18° ESE 05:15:36 18° ESE visible
31 May 3.2 06:54:08 10° NE 07:00:41 76° SE 07:02:55 44° SSW visible
31 May 4.2 08:37:22 10° NE 08:43:25 42° NNW 08:49:28 10° W visible
01 Jun 3.7 06:11:38 10° ENE 06:17:44 40° SE 06:18:10 40° SE visible
01 Jun 3.5 07:54:27 10° NE 08:00:55 65° NW 08:05:29 21° WSW visible
01 Jun 4.7 09:37:39 10° NE 09:43:13 31° NNW 09:48:47 10° WNW visible
02 Jun 4.7 05:30:00 10° ENE 05:33:25 19° ESE 05:33:25 19° ESE visible
02 Jun 3.2 07:11:38 10° NE 07:18:11 76° SE 07:20:45 40° SW visible
02 Jun 4.2 08:54:52 10° NE 09:00:55 42° NNW 09:06:57 10° W visible
03 Jun 3.7 06:29:07 10° ENE 06:35:13 40° SE 06:36:00 39° SSE visible
03 Jun 3.5 08:11:57 10° NE 08:18:25 64° NW 08:23:20 18° WSW visible
03 Jun 4.7 09:55:09 10° NE 10:00:43 31° NNW 10:06:16 10° WNW visible
04 Jun 4.7 05:47:28 10° ENE 05:51:17 19° ESE 05:51:17 19° ESE visible
04 Jun 3.2 07:29:08 10° NE 07:35:41 77° SE 07:38:37 36° SW visible
04 Jun 4.2 09:12:21 10° NE 09:18:24 42° NNW 09:24:27 10° W visible
05 Jun 3.7 06:46:37 10° ENE 06:52:44 41° SE 06:53:54 38° SSE visible
05 Jun 3.5 08:29:27 10° NE 08:35:54 64° NW 08:41:14 16° WSW visible
